Location: Acts Church of Fort Worth
(32.6786°N, 97.2668°W)
Time: 22:38:07
(UTC+00:00)

Cosmos 1697 Rocket - Pass Details

Date: 18 January 2026
Orbit: 830 x 844 km, 71.0° (Epoch: 13 February)

Event Time Altitude Azimuth Distance (km) Brightness Sun altitude
Rises 02:03:16 0° 340° (NNW) 3,402 6.0 -28.2°
Reaches altitude 10° 02:05:44 10° 342° (NNW) 2,465 5.2 -28.7°
Enters shadow 02:08:57 36° 346° (NNW) 1,320 3.7 -29.3°
